KD7CIH Weather Reports


Display with metric or nautical units.
time (UTC)temp
F
wind
direction
speed
MPH
gust
MPH
rain 1hr
in
rain 24hr
in
rain mn
in
humidity
%
barometer
mb
20260504231715 68 40 10.0 21.0 0.00 0.00 0.00 17 1001.5
20260504231032 68 34 11.0 18.0 0.00 0.00 0.00 17 1001.5
20260504230531 68 305 11.0 19.0 0.00 0.00 0.00 17 1001.5
20260504230031 68 333 9.0 20.0 0.00 0.00 0.00 16 1001.5
20260504225531 69 347 7.0 20.0 0.00 0.00 0.00 16 1001.5
20260504225030 69 301 6.0 13.0 0.00 0.00 0.00 16 1001.4
20260504224530 69 317 7.0 15.0 0.00 0.00 0.00 16 1001.4
20260504224030 69 340 8.0 16.0 0.00 0.00 0.00 16 1001.7
20260504223530 69 309 7.0 16.0 0.00 0.00 0.00 15 1001.5
20260504223031 69 342 6.0 15.0 0.00 0.00 0.00 16 1001.5
20260504222530 68 278 9.0 20.0 0.00 0.00 0.00 16 1001.7
20260504222216 68 26 11.0 22.0 0.00 0.00 0.00 15 1001.7
20260504221530 69 317 9.0 22.0 0.00 0.00 0.00 15 1001.7
20260504221030 69 42 7.0 14.0 0.00 0.00 0.00 17 1001.8
20260504220530 69 328 9.0 15.0 0.00 0.00 0.00 17 1001.8
20260504220029 69 332 9.0 15.0 0.00 0.00 0.00 17 1001.9
20260504215529 68 0 6.0 14.0 0.00 0.00 0.00 18 1002.0
20260504215215 67 327 6.0 12.0 0.00 0.00 0.00 17 1002.0
20260504214529 67 44 7.0 13.0 0.00 0.00 0.00 18 1002.2
20260504214029 66 55 7.0 16.0 0.00 0.00 0.00 18 1002.3
20260504213529 67 327 7.0 16.0 0.00 0.00 0.00 18 1002.5
20260504213029 67 302 10.0 18.0 0.00 0.00 0.00 17 1002.5
20260504212528 68 325 8.0 18.0 0.00 0.00 0.00 16 1002.6
20260504212029 69 12 4.0 12.0 0.00 0.00 0.00 16 1002.6
20260504211529 69 222 5.0 20.0 0.00 0.00 0.00 16 1002.6
20260504211029 68 265 8.0 20.0 0.00 0.00 0.00 16 1002.6
20260504210529 67 24 10.0 21.0 0.00 0.00 0.00 16 1002.8
20260504210029 67 318 9.0 21.0 0.00 0.00 0.00 17 1002.8
20260504205715 67 346 6.0 14.0 0.00 0.00 0.00 17 1002.9
20260504205029 66 250 8.0 16.0 0.00 0.00 0.00 16 1002.9
20260504204529 67 308 7.0 16.0 0.00 0.00 0.00 15 1003.0
20260504204029 67 292 7.0 14.0 0.00 0.00 0.00 16 1003.0
20260504203530 67 279 9.0 15.0 0.00 0.00 0.00 15 1003.1
20260504203030 68 18 9.0 15.0 0.00 0.00 0.00 16 1003.1
20260504202530 67 272 7.0 14.0 0.00 0.00 0.00 17 1003.1
20260504202029 68 250 6.0 16.0 0.00 0.00 0.00 16 1003.2
20260504201529 67 262 5.0 16.0 0.00 0.00 0.00 17 1003.4
20260504201029 67 173 5.0 12.0 0.00 0.00 0.00 17 1003.4
20260504200528 66 56 6.0 12.0 0.00 0.00 0.00 17 1003.6
20260504200214 66 70 7.0 12.0 0.00 0.00 0.00 17 1003.6
20260504195530 66 333 7.0 13.0 0.00 0.00 0.00 17 1003.7
20260504195030 67 296 8.0 13.0 0.00 0.00 0.00 17 1003.7
20260504194530 67 336 7.0 13.0 0.00 0.00 0.00 18 1003.6
20260504194214 67 15 6.0 13.0 0.00 0.00 0.00 17 1003.8
20260504193531 67 281 6.0 13.0 0.00 0.00 0.00 17 1003.7
20260504193030 66 346 6.0 13.0 0.00 0.00 0.00 18 1004.0
20260504192530 66 291 5.0 13.0 0.00 0.00 0.00 18 1004.0
20260504192030 65 329 6.0 14.0 0.00 0.00 0.00 18 1004.1
20260504191530 65 288 8.0 14.0 0.00 0.00 0.00 18 1004.2
20260504191216 65 311 7.0 15.0 0.00 0.00 0.00 17 1004.2
20260504190534 66 53 8.0 16.0 0.00 0.00 0.00 18 1004.2
20260504190030 66 329 9.0 16.0 0.00 0.00 0.00 18 1004.4
20260504185532 67 50 6.0 15.0 0.00 0.00 0.00 18 1004.4
20260504185030 66 14 4.0 12.0 0.00 0.00 0.00 18 1004.4
20260504184530 66 231 4.0 12.0 0.00 0.00 0.00 20 1004.7
20260504184216 65 286 6.0 12.0 0.00 0.00 0.00 19 1004.8
20260504183715 65 337 7.0 12.0 0.00 0.00 0.00 19 1004.8
20260504183031 65 299 7.0 13.0 0.00 0.00 0.00 20 1004.8
20260504182715 64 241 7.0 14.0 0.00 0.00 0.00 19 1004.9
20260504182031 65 317 5.0 14.0 0.00 0.00 0.00 19 1005.0
20260504181530 65 245 4.0 14.0 0.00 0.00 0.00 19 1005.0
20260504181030 65 342 3.0 14.0 0.00 0.00 0.00 20 1005.0
20260504180716 65 261 3.0 11.0 0.00 0.00 0.00 20 1005.2
20260504180134 64 217 4.0 9.0 0.00 0.00 0.00 21 1005.3
20260504175531 64 273 3.0 9.0 0.00 0.00 0.00 20 1005.3
20260504175030 64 284 3.0 9.0 0.00 0.00 0.00 21 1005.4
20260504174529 64 29 5.0 10.0 0.00 0.00 0.00 21 1005.4
20260504174030 64 88 4.0 10.0 0.00 0.00 0.00 21 1005.5
20260504173531 64 32 2.0 6.0 0.00 0.00 0.00 21 1005.7
20260504173215 65 59 2.0 8.0 0.00 0.00 0.00 22 1005.5
20260504172528 64 233 4.0 8.0 0.00 0.00 0.00 23 1005.7
20260504172030 63 73 4.0 8.0 0.00 0.00 0.00 24 1005.7
20260504171713 63 96 4.0 11.0 0.00 0.00 0.00 23 1005.7
20260504171029 63 207 5.0 11.0 0.00 0.00 0.00 24 1005.8
20260504170528 64 255 6.0 11.0 0.00 0.00 0.00 24 1005.8
20260504130648 38 17 1.0 2.0 0.00 0.00 0.00 58 1006.7
20260504130147 37 16 2.0 5.0 0.00 0.00 0.00 59 1006.6
20260504110641 39 53 1.0 5.0 0.00 0.00 0.00 56 1006.5
20260504110140 39 90 0.0 2.0 0.00 0.00 0.00 55 1006.5
20260504090112 42 206 0.0 0.0 0.00 0.00 0.00 46 1006.9
20260504040613 56 306 7.0 10.0 0.00 0.00 0.00 26 1007.5
20260504033112 58 309 5.0 9.0 0.00 0.00 0.00 24 1007.2
20260504032820 58 334 5.0 8.0 0.00 0.00 0.00 24 1007.2
20260504032112 58 308 6.0 8.0 0.00 0.00 0.00 23 1007.1
20260504030114 59 323 6.0 9.0 0.00 0.00 0.00 23 1007.0
20260504023615 62 309 9.0 13.0 0.00 0.00 0.00 19 1006.9
20260504022116 62 267 6.0 12.0 0.00 0.00 0.00 20 1006.9
20260504012614 65 319 9.0 18.0 0.00 0.00 0.00 17 1007.0
20260504002113 66 319 11.0 21.0 0.00 0.00 0.00 14 1006.9